Milford, UT

11:38 AM MDT on July 20, 2017 (GMT -0600)
Milford Municipal

Weather History for KMLF - February, 2013

Change the Weather History Date:

Friday, February 1, 2013

  Actual Average Record
Temperature  
Mean Temperature 32 °F -  
Max Temperature 45 °F 41 °F 63 °F (2003)
Min Temperature 19 °F 18 °F -5 °F (2007)
Degree Days  
Heating Degree Days 33    
Moisture  
Dew Point 24 °F    
Average Humidity 76    
Maximum Humidity 92    
Minimum Humidity 40    
Precipitation  
Precipitation 0.00 in - - ()
Sea Level Pressure  
Sea Level Pressure 30.35 in    
Wind  
Wind Speed 4 mph (North)    
Max Wind Speed 12 mph    
Max Gust Speed -    
Visibility 10 miles    
Events      
Averages and records for this station are not official NWS values.
T = Trace of Precipitation, MM = Missing Value Source: NWS Daily Summary

Daily Weather History Graph

Daily Weather History Graph

Search for Another Location

Airport or City:

Trip Planner

Search our weather history database for the weather conditions in past years. The results will help you decide how hot, cold, wet, or windy it might be!

Date:

Astronomy

Feb. 01, 2013 Rise Set
Actual Time 7:37 AM MST 5:54 PM MST
Civil Twilight 7:09 AM MST 6:22 PM MST
Nautical Twilight 6:37 AM MST 6:54 PM MST
Astronomical Twilight 6:06 AM MST 7:25 PM MST
Moon No Moon Rise 10:17 AM MST (2/1)
Length of Visible Light 11h 13m
Length of Day
10h 17m
Waning Gibbous, 69% of the Moon is Illuminated
Feb 1
Waning Gibbous
Feb 3
Last Quarter
Feb 10
New
Feb 17
First Quarter
Feb 25
Full

Hourly Weather History & Observations

Time (MST) Temp. Windchill Dew Point Humidity Pressure Visibility Wind Dir Wind Speed Gust Speed Precip Events Conditions
12:52 AM 25.0 °F 19.3 °F 21.0 °F 85% 30.32 in 10.0 mi WSW 4.6 mph - N/A   Clear
1:52 AM 24.1 °F 18.2 °F 21.0 °F 88% 30.31 in 10.0 mi SSW 4.6 mph - N/A   Clear
2:52 AM 24.1 °F - 21.0 °F 88% 30.30 in 10.0 mi Calm Calm - N/A   Clear
3:52 AM 24.1 °F - 19.9 °F 84% 30.29 in 10.0 mi Calm Calm - N/A   Clear
4:52 AM 21.0 °F - 19.0 °F 92% 30.31 in 10.0 mi Calm Calm - N/A   Clear
5:52 AM 23.0 °F 17.0 °F 19.0 °F 85% 30.32 in 10.0 mi SW 4.6 mph - N/A   Clear
6:52 AM 21.0 °F 14.6 °F 18.0 °F 88% 30.34 in 10.0 mi SSW 4.6 mph - N/A   Clear
7:52 AM 19.9 °F - 17.1 °F 89% 30.37 in 10.0 mi Calm Calm - N/A   Clear
8:52 AM 27.0 °F - 24.1 °F 89% 30.36 in 10.0 mi Calm Calm - N/A   Clear
9:52 AM 30.9 °F 27.5 °F 27.0 °F 85% 30.36 in 10.0 mi South 3.5 mph - N/A   Clear
10:52 AM 34.0 °F - 27.0 °F 75% 30.37 in 10.0 mi Calm Calm - N/A   Clear
11:52 AM 39.0 °F - 25.0 °F 57% 30.34 in 10.0 mi Calm Calm - N/A   Clear
12:52 PM 44.1 °F 42.5 °F 26.1 °F 49% 30.32 in 10.0 mi Variable 3.5 mph - N/A   Clear
1:52 PM 43.0 °F 38.2 °F 28.0 °F 56% 30.32 in 10.0 mi NNE 8.1 mph - N/A   Clear
2:52 PM 44.1 °F 39.0 °F 30.0 °F 58% 30.31 in 10.0 mi North 9.2 mph - N/A   Clear
3:52 PM 44.1 °F 38.1 °F 28.9 °F 55% 30.31 in 10.0 mi North 11.5 mph - N/A   Clear
4:52 PM 43.0 °F 38.2 °F 27.0 °F 53% 30.33 in 10.0 mi North 8.1 mph - N/A   Clear
5:52 PM 37.0 °F 29.3 °F 28.0 °F 70% 30.35 in 10.0 mi North 11.5 mph - N/A   Clear
6:52 PM 33.1 °F 24.4 °F 26.1 °F 75% 30.39 in 10.0 mi North 11.5 mph - N/A   Clear
7:52 PM 28.9 °F 23.9 °F 26.1 °F 89% 30.43 in 10.0 mi NNE 4.6 mph - N/A   Clear
8:52 PM 27.0 °F 18.0 °F 25.0 °F 92% 30.42 in 10.0 mi NNE 9.2 mph - N/A   Clear
9:52 PM 27.0 °F 21.6 °F 24.1 °F 89% 30.43 in 10.0 mi ENE 4.6 mph - N/A   Clear
10:52 PM 25.0 °F - 23.0 °F 92% 30.44 in 10.0 mi Calm Calm - N/A   Clear
11:52 PM 30.0 °F - 24.1 °F 79% 30.43 in 10.0 mi Calm Calm - N/A   Clear